sat.trackr.live / text

‹ back to catalog

STARLINK-36083

NORAD 66857 · 2025-281K

PAYLOAD ACTIVE UNKNOWN

§ Identity

Operator
Country
US
Launch date
2025-12-02
Launch site
AFETR
Launch vehicle
Mass (kg)
RCS (m²)

Purposes: comms

External: N2YO · Heavens-Above · Gunter

§ Orbital elements

Epoch: 2026-05-24T19:24:32.380704Z

Period
94.27 min
Inclination
43.0028°
Eccentricity
0.0001572
Mean motion
15.27590126 rev/d
Perigee alt
481.9 km
Apogee alt
484.1 km
Semi-major
6,861.2 km
B*
7.9094e-4
RAAN
273.8851°
Arg perigee
279.9378°
Mean anomaly
80.1296°
Rev number
2,782

§ Raw data

STARLINK-360831 66857U 25281K   26144.80870811  .00021573  00000+0  79094-3 0  99992 66857  43.0028 273.8851 0001572 279.9378  80.1296 15.27590126 27828

JSON: /api/v1/satellites/66857 · /tle

For live sub-satellite position, see the globe view (requires WebGL).

§ Visibility from observer

Set your observer location to see the next 7 days of passes ≥ 10°. The values pass through the URL so the page stays shareable.

No JS? Fill the form by hand. The geolocation button needs JavaScript.